Location: Unspecified
(0.0000°N, 0.0000°E)
Time: 08:58:08
(UTC+00:00)

COSMO-SKYMED 1 - Visible Passes

Search period start: 22 April 2018 00:00
Search period end: 02 May 2018 00:00
Orbit: 621 x 623 km, 97.9° (Epoch: 21 April)

Date Brightness Start Highest point End Pass type
(mag) Time Alt. Az. Time Alt. Az. Time Alt. Az.
24 Apr 6.3 04:40:27 10° E 04:41:24 11° ENE 04:42:21 10° ENE visible
24 Apr 5.5 18:22:48 10° NNW 18:26:12 23° WNW 18:29:37 10° SW visible
25 Apr 5.6 04:56:15 10° SE 04:59:22 19° ENE 05:02:28 10° NNE visible
25 Apr 6.2 18:42:16 10° NW 18:44:11 13° WNW 18:46:06 10° WSW visible
26 Apr 4.5 05:13:25 10° SE 05:17:21 34° ENE 05:21:16 10° NNE visible
27 Apr 3.2 05:31:02 10° SSE 05:35:20 64° ENE 05:39:37 10° N visible
29 Apr 5.2 18:16:32 10° NNW 18:20:13 27° WNW 18:23:55 10° SW visible
30 Apr 5.9 04:50:44 10° ESE 04:53:23 16° ENE 04:56:02 10° NE visible
30 Apr 6.0 18:35:37 10° NW 18:38:12 16° WNW 18:40:48 10° WSW visible
01 May 4.9 05:07:38 10° SE 05:11:22 28° ENE 05:15:04 10° NNE visible
